Location: Claremont
(33.9858°S, 18.4575°E)
Time: 19:50:30
(UTC+00:00)

deb Transit VC - Pass Details

Date: 25 September 2021
Orbit: 840 x 910 km, 90.5° (Epoch: 27 October)

Event Time Altitude Azimuth Distance (km) Brightness Sun altitude
Rises 17:13:16 0° 349° (N) 3,489 ? -6.7°
Reaches altitude 10° 17:15:46 10° 344° (NNW) 2,547 ? -7.2°
Maximum altitude 17:21:17 47° 270° (W) 1,149 ? -8.4°
Drops below altitude 10° 17:26:46 10° 196° (SSW) 2,532 ? -9.5°
Sets 17:29:16 0° 190° (S) 3,466 ? -10.0°
